Weather reports worldwide

Advertisment
Capo Carbonara, Italy (16564): temperature & dewpoint: 13.11.2019 20:00:00 - 19.11.2019 20:00:00 (CET)Capo Carbonara, Italy (16564): wind speed: 13.11.2019 20:00:00 - 19.11.2019 20:00:00 (CET)Capo Carbonara, Italy (16564): wind direction: 13.11.2019 20:00:00 - 19.11.2019 20:00:00 (CET)Capo Carbonara, Italy (16564): reduced air pressure: 13.11.2019 20:00:00 - 19.11.2019 20:00:00 (CET)Capo Carbonara, Italy (16564): visibility: 13.11.2019 20:00:00 - 19.11.2019 20:00:00 (CET)
Date & Time tt [°C] td [°C] ff [km/h] ff [kn] dd ppp [hPa] vv [km]
19.11.2019 20:00:00 - - - - - - -
19.11.2019 19:00:00 12,2 4,2 31 17 WNW 1012,7 10
19.11.2019 18:00:00 13,0 6,0 39 21 WNW - 10
19.11.2019 17:00:00 13,0 7,0 31 17 WNW - 10
19.11.2019 16:00:00 13,8 6,6 42 23 WNW 1011,5 10
19.11.2019 15:00:00 14,0 8,0 57 31 WNW - 10
19.11.2019 14:00:00 14,0 8,0 52 28 WNW - 10
19.11.2019 13:00:00 13,6 9,8 46 25 W 1010,7 10
19.11.2019 12:00:00 14,0 11,0 31 17 W - 10
19.11.2019 11:00:00 14,0 11,0 31 17 W - 10
19.11.2019 10:00:00 13,8 10,9 13 7 WSW 1010,9 10
19.11.2019 09:00:00 13,0 10,0 22 12 WSW - 10
19.11.2019 08:00:00 13,0 10,0 31 17 WSW - 10
19.11.2019 07:00:00 13,6 11,3 34 18 N 1009,8 10
19.11.2019 06:00:00 14,0 12,0 39 21 SW - 10
19.11.2019 05:00:00 14,0 11,0 44 24 SW - 10
19.11.2019 04:00:00 14,2 10,1 52 28 W 1008,8 10
19.11.2019 03:00:00 14,0 12,0 57 31 SW - 10
19.11.2019 02:00:00 14,0 12,0 54 29 SW - 10
19.11.2019 01:00:00 15,2 11,5 55 30 WSW 1008,1 10
19.11.2019 00:00:00 15,0 12,0 61 33 SW - 10
18.11.2019 23:00:00 15,0 11,0 55 30 SW - 10
18.11.2019 22:00:00 15,2 12,8 42 23 SW 1008,7 10
18.11.2019 21:00:00 17,0 13,0 50 27 SSW - 10
18.11.2019 20:00:00 17,0 11,0 54 29 SSW - 10
18.11.2019 19:00:00 16,4 10,4 50 27 SSW 1008,6 20
18.11.2019 18:00:00 16,0 10,0 39 21 SW - 10
18.11.2019 17:00:00 16,0 9,0 39 21 SSW - 10
18.11.2019 16:00:00 16,8 9,0 34 18 S 1009,0 20
18.11.2019 15:00:00 17,0 8,0 34 18 S - 10
18.11.2019 14:00:00 17,0 8,0 41 22 S - 10
18.11.2019 13:00:00 17,2 6,8 50 27 S 1010,0 20
18.11.2019 12:00:00 17,0 8,0 52 28 S - 10
18.11.2019 11:00:00 17,0 7,0 50 27 SSW - 10
18.11.2019 10:00:00 15,2 7,5 46 25 NW 1011,7 20
18.11.2019 09:00:00 15,0 9,0 41 22 SSW - 10
18.11.2019 08:00:00 14,0 11,0 34 18 WNW - 10
18.11.2019 07:00:00 14,0 11,7 37 20 SSW 1011,9 10
18.11.2019 06:00:00 14,0 12,0 31 17 SW - 10
18.11.2019 05:00:00 14,0 11,0 22 12 SW - 10
18.11.2019 04:00:00 14,6 9,0 31 17 SW 1011,5 10
18.11.2019 03:00:00 14,0 8,0 31 17 SW - 10
18.11.2019 02:00:00 14,0 8,0 31 17 WSW - 10
18.11.2019 01:00:00 13,6 9,3 22 12 WSW 1011,8 10
18.11.2019 00:00:00 13,0 9,0 21 11 WSW - 10
17.11.2019 23:00:00 13,0 9,0 26 14 WSW - 10
17.11.2019 22:00:00 13,4 8,4 21 11 WSW 1012,0 10
17.11.2019 21:00:00 13,0 8,0 29 16 W - 10
17.11.2019 20:00:00 14,0 8,0 44 24 W - 10
17.11.2019 19:00:00 13,6 7,4 42 23 W 1010,9 10
17.11.2019 18:00:00 14,0 8,0 46 25 W - 10
17.11.2019 17:00:00 14,0 7,0 57 31 W - 10
17.11.2019 16:00:00 14,6 8,1 54 29 W 1008,7 10
17.11.2019 15:00:00 14,0 6,0 50 27 WNW - 10
17.11.2019 14:00:00 15,0 4,0 55 30 W - 10
17.11.2019 13:00:00 15,0 6,8 55 30 W 1007,5 10
17.11.2019 12:00:00 14,0 8,0 52 28 W - 10
17.11.2019 11:00:00 13,0 9,0 76 41 W - 10
17.11.2019 10:00:00 12,6 9,3 72 39 W 1005,6 10
17.11.2019 09:00:00 12,0 9,0 63 34 W - 10
17.11.2019 08:00:00 12,0 8,0 52 28 W - 10
17.11.2019 07:00:00 12,0 8,5 78 42 W 1001,8 10
17.11.2019 06:00:00 12,0 8,0 89 48 SE - 10
17.11.2019 05:00:00 11,0 8,0 80 43 W - 10
17.11.2019 04:00:00 12,0 8,3 83 45 WSW 998,6 10
17.11.2019 03:00:00 13,0 10,0 59 32 SW - 10
17.11.2019 02:00:00 - - - - - - -
17.11.2019 01:00:00 13,0 9,8 55 30 SW 1000,1 10
17.11.2019 00:00:00 13,0 9,0 41 22 SW - 9
16.11.2019 23:00:00 12,0 9,0 22 12 W - 7
16.11.2019 22:00:00 - - - - - - -
16.11.2019 21:00:00 12,0 9,0 26 14 W - 10
16.11.2019 20:00:00 13,0 10,0 34 18 NNE - 10
16.11.2019 19:00:00 12,8 8,5 37 20 NNE 1000,0 4,0
16.11.2019 18:00:00 11,0 8,0 44 24 NE - 7
16.11.2019 17:00:00 - - - - - - -
16.11.2019 16:00:00 11,2 7,9 93 50 NE 999,1 4,0
16.11.2019 15:00:00 12,0 8,0 46 25 NE - 9
16.11.2019 14:00:00 12,0 8,0 37 20 NNE - 9
16.11.2019 13:00:00 12,0 8,0 29 16 NNE - 8
16.11.2019 12:00:00 12,0 8,0 22 12 N - 8
16.11.2019 11:00:00 - - - - - - -
16.11.2019 10:00:00 12,8 10,7 29 16 NNE 1008,8 10
16.11.2019 09:00:00 14,0 10,0 26 14 NE - 10
16.11.2019 08:00:00 14,0 10,0 21 11 NE - 10
16.11.2019 07:00:00 13,6 9,4 21 11 NE 1009,1 20
16.11.2019 06:00:00 14,0 10,0 11 6 N - 10
16.11.2019 05:00:00 15,0 11,0 18 10 W - 10
16.11.2019 04:00:00 15,0 10,6 31 17 WSW 1008,4 20
16.11.2019 03:00:00 15,0 11,0 31 17 WSW - 10
16.11.2019 02:00:00 15,0 10,0 41 22 WSW - 10
16.11.2019 01:00:00 15,0 10,4 39 21 WSW 1008,0 20
16.11.2019 00:00:00 15,0 10,0 46 25 WSW - 10
15.11.2019 23:00:00 15,0 9,0 50 27 NNE - 10
15.11.2019 22:00:00 15,0 10,2 37 20 WSW 1007,2 20
15.11.2019 21:00:00 15,0 10,0 54 29 WSW - 10
15.11.2019 20:00:00 15,0 10,0 57 31 WSW - 10
15.11.2019 19:00:00 15,2 10,2 52 28 SW 1005,2 20
15.11.2019 18:00:00 15,0 10,0 50 27 SW - 10
15.11.2019 17:00:00 14,0 9,0 59 32 WSW - 10
15.11.2019 16:00:00 14,0 11,2 63 34 WSW 1003,5 20
15.11.2019 15:00:00 15,0 11,0 63 34 WSW - 10
15.11.2019 14:00:00 14,0 12,0 48 26 W - 10
15.11.2019 13:00:00 15,4 11,6 48 26 WSW 1002,4 20
15.11.2019 12:00:00 16,0 12,0 48 26 WSW - 10
15.11.2019 11:00:00 16,0 12,0 54 29 WSW - 10
15.11.2019 10:00:00 15,0 9,2 42 23 SW 1003,6 20
15.11.2019 09:00:00 15,0 10,0 52 28 WSW - 10
15.11.2019 08:00:00 15,0 11,0 37 20 WSW - 10
15.11.2019 07:00:00 15,0 10,4 26 14 W 1002,6 10
15.11.2019 06:00:00 15,0 11,0 31 17 W - 10
15.11.2019 05:00:00 17,0 13,0 59 32 WSW - 10
15.11.2019 04:00:00 16,6 13,1 54 29 ENE 1002,1 10
15.11.2019 03:00:00 17,0 13,0 48 26 SSW - 10
15.11.2019 02:00:00 16,0 13,0 63 34 S - 10
15.11.2019 01:00:00 16,4 13,0 63 34 S 1002,1 10
15.11.2019 00:00:00 16,0 13,0 55 30 S - 10
14.11.2019 23:00:00 16,0 13,0 48 26 S - 10
14.11.2019 22:00:00 15,2 12,7 44 24 S 1004,9 10
14.11.2019 21:00:00 15,0 12,0 35 19 S - 10
14.11.2019 20:00:00 15,0 12,0 34 18 S - 10
14.11.2019 19:00:00 14,6 11,2 28 15 SSW 1005,8 10
14.11.2019 18:00:00 15,0 11,0 31 17 WSW - 10
14.11.2019 17:00:00 15,0 10,0 22 12 ESE - 10
14.11.2019 16:00:00 16,2 9,7 26 14 SW 1005,9 10
14.11.2019 15:00:00 16,0 9,0 24 13 SW - 10
14.11.2019 14:00:00 17,0 8,0 28 15 WSW - 10
14.11.2019 13:00:00 15,2 8,9 34 18 W 1006,9 20
14.11.2019 12:00:00 15,0 9,0 35 19 W - 10
14.11.2019 11:00:00 14,0 8,0 24 13 W - 10
14.11.2019 10:00:00 13,8 5,0 11 6 WNW 1007,9 20
14.11.2019 09:00:00 13,0 6,0 31 17 W - 10
14.11.2019 08:00:00 12,0 6,0 15 8 W - 10
14.11.2019 07:00:00 12,4 7,5 35 19 W 1006,2 20
14.11.2019 06:00:00 12,0 9,0 9 5 S - 10
14.11.2019 05:00:00 13,0 8,0 15 8 N - 10
14.11.2019 04:00:00 12,2 8,9 29 16 W 1005,6 10
14.11.2019 03:00:00 13,0 9,0 24 13 W - 10
14.11.2019 02:00:00 12,0 8,0 11 6 ENE - 10
14.11.2019 01:00:00 12,0 8,1 18 10 NE 1005,6 10
14.11.2019 00:00:00 12,0 8,0 24 13 NNE - 10
13.11.2019 23:00:00 12,0 8,0 18 10 NNE - 10
13.11.2019 22:00:00 12,0 8,1 16 9 NNE 1006,6 10
13.11.2019 21:00:00 12,0 8,0 11 6 NNW - 10
13.11.2019 20:00:00 13,0 9,0 29 16 WSW - 10

tt = temperature
td = dewpoint
ff = wind speed
dd = wind direction
ppp = reduced air pressure
vv = visibility

Next stations